Date String (YYYY-MM-DD hh:mm:ss) UTC,Instrument flags,absolute air pressure of the measurement (hPa),sample flow rate (lpm),inlet stack bypass flow (lpm),air temperature of the measurement (°C),ambient temperature measured by the external sensor (°C),aerosol sample conditioner tube jacket temperature (°C),OPC LED temperature (°C),internal box temperature (°C),relative humidity of the measurement (%),span deviation,mass concentration of particles derived from Lorenz-Mie calculation of OPC scattering (μg/m³),mass concentration of particles derived from Lorenz-Mie calculation of OPC scattering (μg/m³),mass concentration of particles derived from Lorenz-Mie calculation of OPC scattering (μg/m³)
DateTimeUTC,F1_M11,P_M11,Q1_M11,Q2_M11,T1_M11,T2_M11,T3_M11,T4_M11,T5_M11,U1_M11,ZSPAN_M11,X0_M11,X2_M11,X1_M11
2024-05-03 08:00:00,SystemResetWarning,0826.2,4.99,000.00,025.0,024.2,000.0,033.6,026.8,013.0,0000.0,0011.47,0003.62,0002.17
2024-05-03 08:01:00,SystemResetWarning,0826.2,5.00,000.00,025.0,024.2,000.0,033.6,026.8,012.7,0000.0,0011.22,0003.61,0002.17
2024-05-03 08:02:00,SystemResetWarning,0826.2,5.01,000.00,025.0,024.2,000.0,033.5,026.8,012.6,0000.0,0010.96,0003.61,0002.16
2024-05-03 08:03:00,SystemResetWarning,0826.2,5.01,000.00,025.0,024.2,000.0,033.5,026.8,012.4,0000.0,0010.38,0003.62,0002.15
2024-05-03 08:04:00,SystemResetWarning,0826.1,4.99,000.00,025.0,024.2,000.0,033.5,026.8,012.4,0000.0,0010.80,0003.64,0002.14
2024-05-03 08:05:00,SystemResetWarning,0826.1,5.00,000.00,025.0,024.2,000.0,033.5,026.8,012.5,0000.0,0010.58,0003.58,0002.11
2024-05-03 08:06:00,SystemResetWarning,0826.1,5.00,000.00,025.0,024.3,000.0,033.5,026.8,012.4,0000.0,0010.39,0003.52,0002.08
2024-05-03 08:07:00,SystemResetWarning,0826.1,4.99,000.00,025.0,024.2,000.0,033.5,026.8,012.5,0000.0,0010.26,0003.44,0002.08
2024-05-03 08:08:00,SystemResetWarning,0826.1,5.00,000.00,025.0,024.2,000.0,033.5,026.7,012.5,0000.0,0010.27,0003.45,0002.08
2024-05-03 08:09:00,SystemResetWarning,0826.0,5.00,000.00,025.0,024.2,000.0,033.5,026.7,012.5,0000.0,0010.46,0003.46,0002.08
2024-05-03 08:10:00,SystemResetWarning,0826.0,5.01,000.00,025.0,024.2,000.0,033.5,026.7,012.4,0000.0,0010.44,0003.54,0002.07
2024-05-03 08:11:00,SystemResetWarning,0825.9,4.99,000.00,024.9,024.1,000.0,033.5,026.7,012.4,0000.0,0010.97,0003.55,0002.06
2024-05-03 08:12:00,SystemResetWarning,0825.9,4.99,000.00,024.9,024.1,000.0,033.5,026.7,012.5,0000.0,0011.54,0003.54,0002.05
2024-05-03 08:13:00,SystemResetWarning,0825.9,5.00,000.00,024.9,024.1,000.0,033.4,026.7,012.4,0000.0,0011.56,0003.51,0002.03
2024-05-03 08:14:00,SystemResetWarning,0825.9,5.02,000.00,024.9,024.1,000.0,033.4,026.7,012.3,0000.0,0011.69,0003.44,0002.02
2024-05-03 08:15:00,SystemResetWarning,0825.9,5.00,000.00,024.9,024.1,000.0,033.4,026.7,012.3,0000.0,0011.52,0003.41,0001.99
2024-05-03 08:16:00,SystemResetWarning,0825.9,5.00,000.00,024.9,024.1,000.0,033.4,026.6,012.4,0000.0,0011.42,0003.40,0001.98
2024-05-03 08:17:00,SystemResetWarning,0825.9,4.99,000.00,024.9,024.1,000.0,033.4,026.7,012.4,0000.0,0011.43,0003.39,0001.99
2024-05-03 08:18:00,SystemResetWarning,0825.8,5.00,000.00,024.9,024.1,000.0,033.4,026.7,012.5,0000.0,0011.51,0003.41,0001.98
2024-05-03 08:19:00,SystemResetWarning,0825.8,5.01,000.00,024.9,024.1,000.0,033.4,026.7,012.4,0000.0,0011.90,0003.39,0001.95
2024-05-03 08:20:00,SystemResetWarning,0825.8,5.00,000.00,024.9,024.1,000.0,033.4,026.7,012.4,0000.0,0011.69,0003.38,0001.94
2024-05-03 08:21:00,SystemResetWarning,0825.8,4.99,000.00,024.9,024.1,000.0,033.4,026.7,012.5,0000.0,0012.41,0003.37,0001.95
2024-05-03 08:22:00,SystemResetWarning,0825.8,4.99,000.00,024.9,024.1,000.0,033.4,026.7,012.5,0000.0,0011.44,0003.35,0001.96
2024-05-03 08:23:00,SystemResetWarning,0825.8,5.00,000.00,024.9,024.1,000.0,033.4,026.7,012.4,0000.0,0010.67,0003.34,0001.95
2024-05-03 08:24:00,SystemResetWarning,0825.8,5.00,000.00,024.9,024.1,000.0,033.4,026.7,012.5,0000.0,0011.45,0003.33,0001.96
2024-05-03 08:25:00,SystemResetWarning,0825.8,5.01,000.00,024.8,024.0,000.0,033.4,026.6,012.5,0000.0,0012.11,0003.39,0001.97
2024-05-03 08:26:00,SystemResetWarning,0825.7,5.01,000.00,024.8,024.0,000.0,033.3,026.6,012.5,0000.0,0011.92,0003.40,0001.98
2024-05-03 08:27:00,SystemResetWarning,0825.6,4.99,000.00,024.8,024.0,000.0,033.3,026.5,012.6,0000.0,0012.06,0003.40,0002.00
2024-05-03 08:28:00,SystemResetWarning,0825.6,4.99,000.00,024.8,024.0,000.0,033.3,026.5,012.6,0000.0,0012.51,0003.42,0002.02
2024-05-03 08:29:00,SystemResetWarning,0825.6,4.99,000.00,024.8,023.9,000.0,033.3,026.5,012.8,0000.0,0012.80,0003.42,0002.03
2024-05-03 08:30:00,SystemResetWarning,0825.5,5.02,000.00,024.8,023.9,000.0,033.3,026.5,012.9,0000.0,0012.16,0003.41,0002.04
2024-05-03 08:31:00,SystemResetWarning,0825.4,5.00,000.00,024.7,023.9,000.0,033.3,026.5,012.8,0000.0,0011.98,0003.42,0002.05
2024-05-03 08:32:00,SystemResetWarning,0825.3,4.98,000.00,024.7,023.9,000.0,033.3,026.5,012.7,0000.0,0010.96,0003.38,0002.05
2024-05-03 08:33:00,SystemResetWarning,0825.2,5.00,000.00,024.7,023.9,000.0,033.3,026.5,012.9,0000.0,0010.76,0003.36,0002.04
2024-05-03 08:34:00,SystemResetWarning,0825.2,5.02,000.00,024.7,023.9,000.0,033.2,026.5,013.1,0000.0,0010.95,0003.38,0002.07
2024-05-03 08:35:00,SystemResetWarning,0825.2,5.00,000.00,024.7,023.9,000.0,033.2,026.5,013.4,0000.0,0010.80,0003.44,0002.10
2024-05-03 08:36:00,SystemResetWarning,0825.4,4.99,000.00,024.7,023.9,000.0,033.2,026.5,013.6,0000.0,0009.89,0003.42,0002.11
2024-05-03 08:37:00,SystemResetWarning,0825.4,5.00,000.00,024.7,023.9,000.0,033.2,026.5,013.4,0000.0,0009.81,0003.43,0002.13
2024-05-03 08:38:00,SystemResetWarning,0825.4,5.01,000.00,024.7,023.9,000.0,033.2,026.5,013.5,0000.0,0009.75,0003.47,0002.15
2024-05-03 08:39:00,SystemResetWarning,0825.3,4.99,000.00,024.7,023.8,000.0,033.2,026.4,013.7,0000.0,0009.40,0003.49,0002.17
2024-05-03 08:40:00,SystemResetWarning,0825.2,4.99,000.00,024.7,023.8,000.0,033.2,026.4,013.7,0000.0,0009.11,0003.53,0002.20
2024-05-03 08:41:00,SystemResetWarning,0825.3,5.02,000.00,024.6,023.8,000.0,033.2,026.4,013.8,0000.0,0009.11,0003.57,0002.25
2024-05-03 08:42:00,SystemResetWarning,0825.4,5.00,000.00,024.6,023.8,000.0,033.2,026.5,013.8,0000.0,0009.13,0003.60,0002.29
2024-05-03 08:43:00,SystemResetWarning,0825.4,4.99,000.00,024.6,023.8,000.0,033.1,026.4,013.7,0000.0,0009.61,0003.67,0002.33
2024-05-03 08:44:00,SystemResetWarning,0825.4,5.00,000.00,024.6,023.8,000.0,033.1,026.4,014.0,0000.0,0009.47,0003.70,0002.38
2024-05-03 08:45:00,SystemResetWarning,0825.3,5.01,000.00,024.6,023.8,000.0,033.1,026.3,013.8,0000.0,0009.18,0003.75,0002.40
2024-05-03 08:46:00,SystemResetWarning,0825.4,5.01,000.00,024.6,023.7,000.0,033.1,026.4,013.9,0000.0,0008.75,0003.76,0002.43
2024-05-03 08:47:00,SystemResetWarning,0825.4,5.01,000.00,024.6,023.7,000.0,033.1,026.3,013.9,0000.0,0008.77,0003.78,0002.45
2024-05-03 08:48:00,SystemResetWarning,0825.4,5.00,000.00,024.6,023.7,000.0,033.1,026.3,014.0,0000.0,0009.28,0003.78,0002.46
2024-05-03 08:49:00,SystemResetWarning,0825.4,5.00,000.00,024.5,023.7,000.0,033.1,026.3,014.2,0000.0,0009.20,0003.75,0002.48
2024-05-03 08:50:00,SystemResetWarning,0825.4,5.00,000.00,024.5,023.7,000.0,033.1,026.3,014.2,0000.0,0009.19,0003.75,0002.51
2024-05-03 08:51:00,SystemResetWarning,0825.4,4.99,000.00,024.5,023.7,000.0,033.1,026.3,014.2,0000.0,0009.61,0003.77,0002.53
2024-05-03 08:52:00,SystemResetWarning,0825.4,5.00,000.00,024.5,023.6,000.0,033.0,026.2,014.1,0000.0,0009.71,0003.80,0002.53
2024-05-03 08:53:00,SystemResetWarning,0825.4,4.99,000.00,024.5,023.6,000.0,033.0,026.2,014.1,0000.0,0010.33,0003.83,0002.54
2024-05-03 08:54:00,SystemResetWarning,0825.4,5.00,000.00,024.5,023.6,000.0,033.0,026.2,014.5,0000.0,0010.33,0003.85,0002.54
2024-05-03 08:55:00,SystemResetWarning,0825.4,4.99,000.00,024.5,023.6,000.0,033.0,026.2,014.6,0000.0,0010.39,0003.83,0002.54
2024-05-03 08:56:00,SystemResetWarning,0825.4,5.00,000.00,024.4,023.6,000.0,033.0,026.2,015.0,0000.0,0010.22,0003.81,0002.55
2024-05-03 08:57:00,SystemResetWarning,0825.3,4.99,000.00,024.4,023.6,000.0,033.0,026.2,015.3,0000.0,0010.38,0003.80,0002.57
2024-05-03 08:58:00,SystemResetWarning,0825.3,5.00,000.00,024.4,023.6,000.0,033.0,026.2,015.2,0000.0,0010.74,0003.80,0002.59
2024-05-03 08:59:00,SystemResetWarning,0825.3,5.00,000.00,024.4,023.6,000.0,033.0,026.2,015.2,0000.0,0010.36,0003.85,0002.62
